Spokane Fairchild, WA
on Monday, January 21, 2013

Monday
Previous Day Next Day
Daily Summary
 ActualAverage (KGEG)Record (KGEG)
Temperature
Mean Temperature °F 30°F  
Max Temperature 21°F 35°F 49°F (1909)
Min Temperature 4°F 26°F -13°F (1962)
Degree Days
Heating Degree Days 52 35  
Month to date heating degree days 759  
Since 1 July heating degree days 3593  
Cooling Degree Days 0 0  
Month to date cooling degree days 0  
Year to date cooling degree days 0  
Moisture
Dew Point 13°F   
Average Humidity 100    
Maximum Humidity 100    
Minimum Humidity 100    
Precipitation
Precipitation 0.00 in 0.06 in 1.26 in (1954)
Month to date precipitation 1.29  
Year to date precipitation 1.29  
Snow
Snow 0.00 in 0.30 in 12.70 in (1954)
Month to date snowfall 8.6  
Since 1 July snowfall 30.7  
Snow Depth 3.00 in   
Wind
Wind Speed 1 mph   
Max Wind Speed 8 mph   
Max Gust Speed mph   
Visibility 4 miles   
Events Fog , Snow   

Key: T is trace of precipitation, MM is missing value
Source: NWS Daily Summary
Time(PST)TemperatureDew PointHumidity Pressure Visibility Wind DirectionWind SpeedGust SpeedPrecipitationEvents Conditions
12:08 AM 12.2°F 12.2°F 100% 30.33 in 0.5 miles West 1.2 mph - N/A Fog Light Freezing Fog
12:13 AM 12.2°F 12.2°F 100% 30.33 in 0.8 miles NW 1.2 mph - N/A   Clear
12:23 AM 12.2°F 12.2°F 100% 30.33 in 0.5 miles Calm Calm - N/A Fog Light Freezing Fog
12:33 AM 12.2°F 12.2°F 100% 30.33 in 0.8 miles NNE 1.2 mph - N/A   Clear
12:38 AM 12.2°F 12.2°F 100% 30.33 in 1.2 miles Calm Calm - N/A   Clear
12:43 AM 12.2°F 12.2°F 100% 30.33 in 0.5 miles Calm Calm - N/A Fog Light Freezing Fog
12:48 AM 14.0°F 14.0°F 100% 30.32 in 0.2 miles Calm Calm - N/A Fog Light Freezing Fog
12:58 AM 12.7°F 12.7°F 100% 30.45 in 0.2 miles Calm Calm - N/A Fog Light Freezing Fog
1:09 AM 12.2°F 12.2°F 100% 30.32 in 0.2 miles Calm Calm - N/A Fog Light Freezing Fog
1:11 AM 12.2°F 12.2°F 100% 30.32 in 0.2 miles Calm Calm - N/A Fog Light Freezing Fog
1:56 AM 13.1°F 13.1°F 100% 30.45 in 0.2 miles NNE 1.2 mph - N/A Fog Light Freezing Fog
2:55 AM 12.0°F 12.0°F 100% 30.45 in 0.2 miles Calm Calm - N/A Fog Light Freezing Fog
3:19 AM 10.4°F 10.4°F 100% 30.32 in 0.2 miles SW 1.2 mph - N/A Fog Light Freezing Fog
3:24 AM 10.4°F 10.4°F 100% 30.32 in 0.5 miles Calm Calm - N/A Fog Light Freezing Fog
3:39 AM 10.4°F 10.4°F 100% 30.32 in 0.2 miles Calm Calm - N/A Fog Light Freezing Fog
3:49 AM 10.4°F 10.4°F 100% 30.32 in 0.2 miles Calm Calm - N/A Fog Light Freezing Fog
3:54 AM 10.4°F 10.4°F 100% 30.32 in 0.2 miles NE 1.2 mph - N/A Fog Light Freezing Fog
3:58 AM 10.9°F 10.9°F 100% 30.45 in 0.2 miles NE 1.2 mph - N/A Fog Light Freezing Fog
3:59 AM 10.4°F 10.4°F 100% 30.43 in 0.2 miles NNE 1.2 mph - N/A Fog Light Freezing Fog
4:55 AM 11.5°F 11.5°F 100% 30.44 in 0.2 miles East 1.2 mph - N/A Fog Light Freezing Fog
5:55 AM 10.6°F 10.6°F 100% 30.43 in 0.2 miles Calm Calm - N/A Fog Light Freezing Fog
6:55 AM 11.7°F 11.7°F 100% 30.42 in 0.2 miles Calm Calm - N/A Fog Light Freezing Fog
7:47 AM 10.4°F 10.4°F 100% 30.30 in 0.2 miles Calm Calm - N/A Fog Light Freezing Fog
7:58 AM 10.9°F 10.9°F 100% 30.44 in 0.2 miles Calm Calm - 0.00 in Fog Light Freezing Fog
8:08 AM 10.4°F 10.4°F 100% 30.30 in 0.5 miles Calm Calm - N/A Fog Light Freezing Fog
8:13 AM 10.4°F 10.4°F 100% 30.30 in 0.2 miles NW 1.2 mph - N/A Fog , Snow Light Freezing Fog
8:33 AM 10.4°F 10.4°F 100% 30.31 in 0.2 miles North 3.5 mph - N/A Fog Light Freezing Fog
8:38 AM 10.4°F 10.4°F 100% 30.31 in 0.5 miles NNE 2.3 mph - N/A Fog Light Freezing Fog
8:43 AM 10.4°F 10.4°F 100% 30.30 in 0.2 miles NE 2.3 mph - N/A Fog Light Freezing Fog
8:48 AM 10.4°F 10.4°F 100% 30.31 in 0.2 miles NE 2.3 mph - N/A Fog Light Freezing Fog
8:53 AM 12.2°F 12.2°F 100% 30.31 in 0.2 miles NE 1.2 mph - N/A Fog Light Freezing Fog
8:58 AM 11.7°F 11.7°F 100% 30.45 in 0.2 miles Calm Calm - N/A Fog Light Freezing Fog
9:58 AM 13.5°F 13.5°F 100% 30.44 in 0.2 miles Calm Calm - N/A Fog Light Freezing Fog
10:03 AM 14.0°F 14.0°F 100% 30.30 in 0.2 miles NE 2.3 mph - N/A Fog , Snow Light Freezing Fog
10:13 AM 14.0°F 14.0°F 100% 30.30 in 0.2 miles NNE 2.3 mph - N/A Fog , Snow Light Freezing Fog
10:17 AM 14.0°F 14.0°F 100% 30.30 in 0.2 miles NNE 2.3 mph - N/A Fog Light Freezing Fog
10:29 AM 14.0°F 14.0°F 100% 30.30 in 0.2 miles NNE 2.3 mph - N/A Fog , Snow Light Freezing Fog
10:40 AM 15.8°F 15.8°F 100% 30.30 in 0.2 miles NE 2.3 mph - N/A Fog Light Freezing Fog
10:45 AM 15.8°F 15.8°F 100% 30.30 in 0.2 miles NNE 1.2 mph - N/A Fog Light Freezing Fog
10:50 AM 15.8°F 15.8°F 100% 30.30 in 0.5 miles NNE 2.3 mph - N/A Fog Light Freezing Fog
10:55 AM 14.0°F 14.0°F 100% 30.30 in 0.2 miles NNE 2.3 mph - N/A Fog Light Freezing Fog
10:58 AM 14.0°F 14.0°F 100% 30.44 in 0.2 miles NNE 2.3 mph - 0.00 in Fog Light Freezing Fog
11:03 AM 15.8°F 15.8°F 100% 30.30 in 0.2 miles North 1.2 mph - N/A Fog Light Freezing Fog
11:04 AM 15.8°F 15.8°F 100% 30.30 in 0.2 miles Calm Calm - N/A Fog , Snow Light Freezing Fog
11:13 AM 15.8°F 15.8°F 100% 30.30 in 0.2 miles Calm Calm - N/A Fog Light Freezing Fog
11:28 AM 15.8°F 15.8°F 100% 30.29 in 0.2 miles Calm Calm - N/A Fog Light Freezing Fog
11:34 AM 15.8°F 15.8°F 100% 30.29 in 0.2 miles Calm Calm - N/A Fog , Snow Light Freezing Fog
11:39 AM 15.8°F 15.8°F 100% 30.29 in 0.2 miles Calm Calm - N/A Fog , Snow Light Freezing Fog
11:44 AM 17.6°F 17.6°F 100% 30.29 in 0.2 miles Calm Calm - N/A Fog , Snow Light Freezing Fog
11:48 AM 17.6°F 17.6°F 100% 30.29 in 0.2 miles Calm Calm - N/A Fog Light Freezing Fog
11:58 AM 17.4°F 17.4°F 100% 30.42 in 0.2 miles Calm Calm - 0.00 in Fog Light Freezing Fog
12:00 PM 17.6°F 17.6°F 100% 30.28 in 0.2 miles Calm Calm - N/A Fog , Snow Light Freezing Fog
12:09 PM 17.6°F 17.6°F 100% 30.28 in 0.2 miles Calm Calm - N/A Fog Light Freezing Fog
12:14 PM 17.6°F 17.6°F 100% 30.28 in 0.2 miles Calm Calm - N/A Fog Light Freezing Fog
12:19 PM 17.6°F 17.6°F 100% 30.28 in 0.5 miles Calm Calm - N/A Fog Light Freezing Fog
12:24 PM 17.6°F 17.6°F 100% 30.28 in 0.8 miles Calm Calm - N/A   Clear
12:29 PM 19.4°F 19.4°F 100% 30.28 in 0.5 miles Calm Calm - N/A Fog Light Freezing Fog
12:39 PM 19.4°F 19.4°F 100% 30.27 in 0.8 miles Calm Calm - N/A   Clear
12:44 PM 19.4°F 19.4°F 100% 30.27 in 1.2 miles Calm Calm - N/A   Clear
12:49 PM 19.4°F 19.4°F 100% 30.27 in 3.0 miles Calm Calm - N/A   Clear
12:58 PM 19.8°F 19.8°F 100% 30.40 in 7.0 miles Calm Calm - 0.00 in   Clear
1:05 PM 21.2°F 21.2°F 100% 30.27 in 8.0 miles Calm Calm - N/A   Clear
1:06 PM 21.2°F 21.2°F 100% 30.27 in 8.0 miles Calm Calm - N/A   Clear
1:41 PM 19.4°F 19.4°F 100% 30.26 in 2.0 miles East 4.6 mph - N/A   Clear
1:58 PM 19.6°F 19.6°F 100% 30.39 in 2.5 miles ENE 3.5 mph - 0.00 in   Clear
2:03 PM 19.4°F 19.4°F 100% 30.25 in 3.0 miles ENE 3.5 mph - N/A   Clear
2:04 PM 19.4°F 19.4°F 100% 30.25 in 3.0 miles ENE 3.5 mph - N/A   Clear
2:58 PM 19.8°F 19.8°F 100% 30.38 in 4.0 miles Calm Calm - 0.00 in   Clear
3:31 PM 19.4°F 19.4°F 100% 30.23 in 5.0 miles North 2.3 mph - N/A   Clear
3:41 PM 21.2°F 21.2°F 100% 30.23 in 5.0 miles North 1.2 mph - N/A   Clear
3:56 PM 19.4°F 19.4°F 100% 30.23 in 5.0 miles North 2.3 mph - N/A   Clear
3:59 PM 19.9°F 19.9°F 100% 30.37 in 5.0 miles NNW 2.3 mph - 0.00 in   Clear
4:19 PM 19.4°F 19.4°F 100% 30.24 in 8.0 miles North 3.5 mph - N/A   Clear
4:28 PM 15.8°F 15.8°F 100% 30.24 in 8.0 miles North 3.5 mph - N/A Snow Light Snow
4:36 PM 14.0°F 14.0°F 100% 30.23 in 8.0 miles Variable 3.5 mph - N/A   Clear
4:58 PM 13.8°F 13.8°F 100% 30.38 in 10.0 miles SW 6.9 mph - 0.00 in   Clear
5:58 PM 12.6°F 12.6°F 100% 30.38 in 9.0 miles WSW 4.6 mph - N/A   Clear
6:34 PM 12.2°F 12.2°F 100% 30.23 in 10.0 miles SW 5.8 mph - N/A Snow Light Snow
6:43 PM 12.2°F 12.2°F 100% 30.23 in 8.0 miles WSW 4.6 mph - N/A   Clear
6:58 PM 9.1°F 9.1°F 100% 30.38 in 10.0 miles WSW 8.1 mph - 0.00 in   Clear
6:59 PM 8.6°F 8.6°F 100% 30.23 in 10.0 miles WSW 6.9 mph - N/A Snow Light Snow
7:12 PM 6.8°F 6.8°F 100% 30.23 in 10.0 miles West 8.1 mph - N/A   Clear
7:18 PM 6.8°F 6.8°F 100% 30.23 in 10.0 miles West 6.9 mph - N/A Snow Light Snow
7:34 PM 6.8°F 6.8°F 100% 30.23 in 10.0 miles West 5.8 mph - N/A   Clear
7:58 PM 6.8°F 6.8°F 100% 30.40 in 10.0 miles West 6.9 mph - 0.00 in   Clear
8:17 PM 5.0°F 5.0°F 100% 30.25 in 10.0 miles WSW 5.8 mph - N/A Snow Light Snow
8:45 PM 5.0°F 5.0°F 100% 30.24 in 10.0 miles SW 5.8 mph - N/A   Clear
8:47 PM 5.0°F 5.0°F 100% 30.24 in 10.0 miles SW 4.6 mph - N/A   Partly Cloudy
8:58 PM 5.2°F 5.2°F 100% 30.40 in 10.0 miles SW 4.6 mph - 0.00 in   Partly Cloudy
9:07 PM 5.0°F 5.0°F 100% 30.23 in 10.0 miles SSW 2.3 mph - N/A Snow Light Snow
9:30 PM 5.0°F 5.0°F 100% 30.24 in 10.0 miles WSW 2.3 mph - N/A   Clear
9:58 PM 5.4°F 5.4°F 100% 30.40 in 10.0 miles South 1.2 mph - 0.00 in   Clear
10:02 PM 5.0°F 5.0°F 100% 30.24 in 10.0 miles South 2.3 mph - N/A   Partly Cloudy
10:13 PM 5.0°F 5.0°F 100% 30.25 in 10.0 miles WSW 2.3 mph - N/A Snow Light Snow
10:23 PM 5.0°F 5.0°F 100% 30.25 in 10.0 miles WSW 4.6 mph - N/A Snow Light Snow
10:27 PM 5.0°F 5.0°F 100% 30.25 in 10.0 miles West 4.6 mph - N/A   Overcast
10:28 PM 5.0°F 5.0°F 100% 30.25 in 10.0 miles West 3.5 mph - N/A   Light Freezing Drizzle
10:32 PM 5.0°F 5.0°F 100% 30.25 in 10.0 miles West 3.5 mph - N/A   Light Freezing Drizzle
10:55 PM 4.1°F 4.1°F 100% 30.41 in 10.0 miles WSW 4.6 mph - N/A   Overcast
11:55 PM 5.7°F 5.7°F 100% 30.40 in 9.0 miles SSW 2.3 mph - N/A   Overcast
Moon Phase
Jan. 21 Jan. 26 Feb. 03 Feb. 10 Feb. 17
Sunrise:07:29 AM (PST) Moon Rise:12:16 PM (PST)
Sunset:04:35 PM (PST) Moon Set:03:02 AM (PST)

Copyright © 2014 The Weather Underground, Inc.